SENTINEL-1D (66315 NORAD) Tracking and Keplerian Element Data

This shows tracking and keplerian element data for the satellite.

Feedback or suggestion? Click here.




ElementValue
Catalog66315
NameSENTINEL-1D
Epoch Orbit661
Epoch Day354.12697688
Epoch Year2025
RAAN359.0453
Inclination98.182
Eccentricity0.0001263
Argument of Perigee89.2183
Mean Anonmoly270.9161
Mean Motion14.59198718
Decay Rate1.02E-06
L11 66315U 25251A 25354.12697688 .00000102 00000+0 31282-4 0 9994
L22 66315 98.1820 359.0453 0001263 89.2183 270.9161 14.59198718 6615



Live tracking and technical data element details for SENTINEL-1D (NORAD 66315). SENTINEL-1D can be tracked NOW for your location showing map with azimuth and elevation plus other details from your city location.







IsCatalogInMostPopularTable: catalog: 66315, numindb: 21
Update: records affected: 1



GetName: 66315 SENTINEL-1D

Hit Count: updated at: Mon, 20 Apr 2026 10:46:26 GMT